When you browse on this site, cookies collect data to enhance your experience and personalize the content and advertising you see.
Visit our Privacy Policy to learn more. By continuing to use the site, you agree to this use of cookies and data.
  • In Romania
  • List of Countries
  • For 7 days
  • Water Temperature
  • Satellite Maps
  • Weather Map
  • Weather Widgets
  • user-avatar
    Login

    Hourly Weather Arneguy

    Today, 16 February, Saturday

    Time Temperature Precipitation Wind Pressure Humidity
    00:00 +5°C° 0 mm 2 mps 708 mmHg 64%
    01:00 +5°C° 0 mm 2 mps 708 mmHg 63%
    02:00 +5°C° 0 mm 2 mps 708 mmHg 63%
    03:00 +5°C° 0 mm 2 mps 708 mmHg 62%
    04:00 +4°C° 0 mm 2 mps 708 mmHg 61%
    05:00 +4°C° 0 mm 2 mps 708 mmHg 61%
    06:00 +4°C° 0 mm 2 mps 708 mmHg 60%
    07:00 +5°C° 0 mm 2 mps 708 mmHg 56%
    08:00 +7°C° 0 mm 2 mps 709 mmHg 52%
    09:00 +8°C° 0 mm 2 mps 709 mmHg 49%
    10:00 +10°C° 0 mm 3 mps 709 mmHg 43%
    11:00 +12°C° 0 mm 3 mps 709 mmHg 37%
    12:00 +14°C° 0 mm 3 mps 709 mmHg 31%
    13:00 +14°C° 0 mm 3 mps 709 mmHg 31%
    14:00 +16°C° 0 mm 3 mps 708 mmHg 31%
    15:00 +16°C° 0 mm 3 mps 708 mmHg 31%
    16:00 +13°C° 0 mm 3 mps 707 mmHg 37%
    17:00 +10°C° 0 mm 3 mps 707 mmHg 42%
    18:00 +8°C° 0 mm 3 mps 706 mmHg 48%
    19:00 +8°C° 0 mm 3 mps 706 mmHg 45%
    20:00 +7°C° 0 mm 3 mps 706 mmHg 42%
    21:00 +7°C° 0 mm 3 mps 707 mmHg 38%
    22:00 +7°C° 0 mm 3 mps 707 mmHg 38%
    23:00 +6°C° 0 mm 4 mps 707 mmHg 37%

    Tomorrow, 17 February, Sunday

    Time Temperature Precipitation Wind Pressure Humidity
    00:00 +6°C° 0 mm 4 mps 707 mmHg 36%
    01:00 +6°C° 0 mm 4 mps 706 mmHg 35%
    02:00 +5°C° 0 mm 3 mps 706 mmHg 35%
    03:00 +5°C° 0 mm 3 mps 706 mmHg 34%
    04:00 +5°C° 0 mm 3 mps 706 mmHg 35%
    05:00 +4°C° 0 mm 3 mps 706 mmHg 35%
    06:00 +4°C° 0 mm 3 mps 705 mmHg 36%
    07:00 +5°C° 0 mm 3 mps 706 mmHg 35%
    08:00 +7°C° 0 mm 3 mps 706 mmHg 34%
    09:00 +7°C° 0 mm 4 mps 706 mmHg 34%
    10:00 +10°C° 0 mm 4 mps 706 mmHg 32%
    11:00 +12°C° 0 mm 4 mps 706 mmHg 31%
    12:00 +14°C° 0 mm 4 mps 706 mmHg 29%
    13:00 +14°C° 0 mm 4 mps 705 mmHg 30%
    14:00 +14°C° 0 mm 4 mps 705 mmHg 32%
    15:00 +14°C° 0 mm 4 mps 704 mmHg 33%
    16:00 +12°C° 0 mm 3 mps 704 mmHg 39%
    17:00 +10°C° 0 mm 3 mps 704 mmHg 46%
    18:00 +7°C° 0 mm 2 mps 703 mmHg 52%
    19:00 +7°C° 0 mm 2 mps 703 mmHg 50%
    20:00 +5°C° 0 mm 3 mps 703 mmHg 47%
    21:00 +5°C° 0 mm 3 mps 703 mmHg 45%
    22:00 +5°C° 0 mm 3 mps 703 mmHg 46%
    23:00 +5°C° 0 mm 3 mps 703 mmHg 47%

    Day after tomorrow, 18 February, Monday

    Time Temperature Precipitation Wind Pressure Humidity
    00:00 +5°C° 0 mm 3 mps 703 mmHg 48%
    01:00 +5°C° 0 mm 3 mps 703 mmHg 49%
    02:00 +4°C° 0 mm 3 mps 703 mmHg 50%
    03:00 +4°C° 0 mm 3 mps 702 mmHg 51%
    04:00 +4°C° 0 mm 3 mps 702 mmHg 52%
    05:00 +4°C° 0 mm 3 mps 702 mmHg 52%
    06:00 +3°C° 0 mm 3 mps 702 mmHg 52%
    07:00 +5°C° 0 mm 3 mps 702 mmHg 49%
    08:00 +7°C° 0 mm 3 mps 703 mmHg 47%
    09:00 +8°C° 0 mm 3 mps 703 mmHg 44%
    10:00 +10°C° 0 mm 3 mps 703 mmHg 41%
    11:00 +12°C° 0 mm 3 mps 703 mmHg 38%
    12:00 +13°C° 0 mm 3 mps 704 mmHg 35%
    13:00 +13°C° 0 mm 3 mps 703 mmHg 36%
    14:00 +13°C° 0 mm 3 mps 703 mmHg 36%
    15:00 +13°C° 0 mm 3 mps 703 mmHg 37%
    16:00 +12°C° 0 mm 2 mps 703 mmHg 49%
    17:00 +10°C° 0 mm 1 mps 703 mmHg 61%
    18:00 +6°C° 0 mm 0 mps 703 mmHg 73%
    19:00 +6°C° 0 mm 0 mps 703 mmHg 77%
    20:00 +5°C° 0 mm 0 mps 703 mmHg 81%
    21:00 +5°C° 0 mm 0 mps 704 mmHg 85%
    22:00 +5°C° 0 mm 0 mps 704 mmHg 86%
    23:00 +4°C° 0 mm 0 mps 704 mmHg 87%

    19 February, Tuesday

    Time Temperature Precipitation Wind Pressure Humidity
    00:00 +4°C° 0 mm 0 mps 705 mmHg 88%
    01:00 +4°C° 0 mm 0 mps 705 mmHg 88%
    02:00 +4°C° 0 mm 0 mps 705 mmHg 88%
    03:00 +4°C° 0 mm 0 mps 705 mmHg 88%
    04:00 +4°C° 0 mm 0 mps 705 mmHg 90%
    05:00 +4°C° 0 mm 0 mps 705 mmHg 91%
    06:00 +4°C° 0 mm 0 mps 705 mmHg 92%
    07:00 +5°C° 0 mm 0 mps 705 mmHg 89%
    08:00 +6°C° 0 mm 0 mps 706 mmHg 86%
    09:00 +7°C° 0 mm 0 mps 706 mmHg 83%
    10:00 +9°C° 0 mm 0 mps 706 mmHg 74%
    11:00 +10°C° 0 mm 0 mps 706 mmHg 65%
    12:00 +12°C° 0 mm 0 mps 706 mmHg 56%
    13:00 +13°C° 0 mm 1 mps 706 mmHg 55%
    14:00 +13°C° 0 mm 1 mps 705 mmHg 55%
    15:00 +13°C° 0 mm 1 mps 705 mmHg 55%
    16:00 +11°C° 0 mm 1 mps 705 mmHg 66%
    17:00 +8°C° 0 mm 0 mps 704 mmHg 78%
    18:00 +6°C° 0 mm 0 mps 704 mmHg 89%
    19:00 +6°C° 0 mm 0 mps 704 mmHg 89%
    20:00 +6°C° 0 mm 1 mps 705 mmHg 89%
    21:00 +6°C° 0 mm 1 mps 705 mmHg 89%
    22:00 +6°C° 0 mm 1 mps 705 mmHg 86%
    23:00 +5°C° 0 mm 2 mps 705 mmHg 82%

    20 February, Wednesday

    Time Temperature Precipitation Wind Pressure Humidity
    00:00 +5°C° 0 mm 2 mps 705 mmHg 79%
    01:00 +4°C° 0 mm 2 mps 705 mmHg 78%
    02:00 +4°C° 0 mm 2 mps 705 mmHg 77%
    03:00 +4°C° 0 mm 2 mps 704 mmHg 76%
    04:00 +4°C° 0 mm 2 mps 704 mmHg 77%
    05:00 +4°C° 0 mm 2 mps 704 mmHg 78%
    06:00 +4°C° 0 mm 2 mps 704 mmHg 79%
    07:00 +5°C° 0 mm 2 mps 705 mmHg 73%
    08:00 +7°C° 0 mm 2 mps 705 mmHg 67%
    09:00 +8°C° 0 mm 2 mps 706 mmHg 61%
    10:00 +10°C° 0 mm 2 mps 706 mmHg 57%
    11:00 +12°C° 0 mm 2 mps 707 mmHg 53%
    12:00 +14°C° 0 mm 2 mps 707 mmHg 48%
    13:00 +14°C° 0 mm 2 mps 707 mmHg 48%
    14:00 +15°C° 0 mm 2 mps 706 mmHg 48%
    15:00 +15°C° 0 mm 2 mps 706 mmHg 48%
    16:00 +13°C° 0 mm 1 mps 706 mmHg 57%
    17:00 +11°C° 0 mm 1 mps 706 mmHg 65%
    18:00 +9°C° 0 mm 1 mps 706 mmHg 73%
    19:00 +8°C° 0 mm 1 mps 706 mmHg 74%
    20:00 +8°C° 0 mm 1 mps 706 mmHg 75%
    21:00 +6°C° 0 mm 2 mps 707 mmHg 76%
    22:00 +6°C° 0 mm 2 mps 707 mmHg 75%
    23:00 +6°C° 0 mm 2 mps 706 mmHg 74%

    21 February, Thursday

    Time Temperature Precipitation Wind Pressure Humidity
    00:00 +6°C° 0 mm 2 mps 706 mmHg 73%
    01:00 +5°C° 0 mm 2 mps 706 mmHg 75%
    02:00 +5°C° 0 mm 2 mps 706 mmHg 76%
    03:00 +5°C° 0 mm 2 mps 706 mmHg 77%
    04:00 +5°C° 0 mm 2 mps 706 mmHg 76%
    05:00 +5°C° 0 mm 2 mps 706 mmHg 76%
    06:00 +5°C° 0 mm 2 mps 706 mmHg 75%
    07:00 +6°C° 0 mm 2 mps 706 mmHg 71%
    08:00 +8°C° 0 mm 3 mps 707 mmHg 67%
    09:00 +9°C° 0 mm 3 mps 707 mmHg 63%
    10:00 +11°C° 0 mm 3 mps 707 mmHg 58%
    11:00 +12°C° 0 mm 3 mps 707 mmHg 54%
    12:00 +14°C° 0 mm 3 mps 708 mmHg 49%
    13:00 +14°C° 0 mm 3 mps 707 mmHg 49%
    14:00 +14°C° 0 mm 3 mps 707 mmHg 48%
    15:00 +16°C° 0 mm 3 mps 707 mmHg 48%
    16:00 +13°C° 0 mm 3 mps 707 mmHg 56%
    17:00 +12°C° 0 mm 2 mps 706 mmHg 64%
    18:00 +9°C° 0 mm 2 mps 706 mmHg 71%
    19:00 +8°C° 0 mm 2 mps 706 mmHg 70%
    20:00 +8°C° 0 mm 2 mps 707 mmHg 68%
    21:00 +7°C° 0 mm 2 mps 707 mmHg 66%
    22:00 +7°C° 0 mm 2 mps 707 mmHg 65%
    23:00 +7°C° 0 mm 3 mps 707 mmHg 64%
    Show more